Columbia Airport, CA

6:57 PM PST on December 08, 2019 (GMT -0800)
Columbia Airport

Weather History for KO22 - October, 2019

Change the Weather History Date:

Sunday, October 6, 2019

  Actual Average (KMOD) Record (KMOD)
Temperature  
Mean Temperature 65 °F -  
Max Temperature 84 °F 82 °F 97 °F (1987)
Min Temperature 46 °F 53 °F 42 °F (1969)
Growing Degree Days 15 (Base 50)    
Moisture  
Dew Point 38 °F    
Average Humidity 45    
Maximum Humidity 76    
Minimum Humidity 18    
Precipitation  
Precipitation 0.00 in - - ()
Sea Level Pressure  
Sea Level Pressure 30.08 in    
Wind  
Wind Speed 1 mph (SW)    
Max Wind Speed 7 mph    
Max Gust Speed 12 mph    
Visibility 10 miles    
Events      
Averages and records for this station are not official NWS values.
T = Trace of Precipitation, MM = Missing Value Source: NWS Daily Summary

Daily Weather History Graph

Daily Weather History Graph

Search for Another Location

Airport or City:

Astronomy

Oct. 06, 2019 Rise Set
Actual Time 7:01 AM PDT 6:37 PM PDT
Civil Twilight 6:35 AM PDT 7:03 PM PDT
Nautical Twilight 6:04 AM PDT 7:33 PM PDT
Astronomical Twilight 5:34 AM PDT 8:04 PM PDT
Moon 3:12 PM PDT (10/6) 12:11 AM PDT (10/6)
Length of Visible Light 12h 28m
Length of Day
11h 35m
First Quarter, 61% of the Moon is Illuminated
Oct 6
First Quarter
Oct 13
Full
Oct 21
Last Quarter
Oct 27
New
Nov 4
First Quarter

Hourly Weather History & Observations

Time (PDT) Temp. Dew Point Humidity Pressure Visibility Wind Dir Wind Speed Gust Speed Precip Events Conditions
12:15 AM 50.0 °F 37.4 °F 62% 30.08 in 10.0 mi Calm Calm - N/A   Clear
12:35 AM 50.0 °F 37.4 °F 62% 30.08 in 10.0 mi Calm Calm - N/A   Clear
12:55 AM 50.0 °F 39.2 °F 66% 30.08 in 10.0 mi Calm Calm - N/A   Clear
1:15 AM 50.0 °F 39.2 °F 66% 30.08 in 10.0 mi Calm Calm - N/A   Clear
1:35 AM 50.0 °F 39.2 °F 66% 30.08 in 10.0 mi Calm Calm - N/A   Clear
1:55 AM 50.0 °F 39.2 °F 66% 30.08 in 10.0 mi Calm Calm - N/A   Clear
2:15 AM 50.0 °F 39.2 °F 66% 30.08 in 10.0 mi Calm Calm - N/A   Clear
2:35 AM 50.0 °F 39.2 °F 66% 30.08 in 10.0 mi North - - N/A   Clear
2:55 AM 50.0 °F 39.2 °F 66% 30.08 in 10.0 mi Calm Calm - N/A   Clear
3:15 AM 50.0 °F 39.2 °F 66% 30.08 in 10.0 mi Calm Calm - N/A   Clear
3:35 AM 48.2 °F 39.2 °F 71% 30.07 in 10.0 mi North - - N/A   Clear
3:55 AM 50.0 °F 39.2 °F 66% 30.07 in 10.0 mi Calm Calm - N/A   Clear
4:15 AM 48.2 °F 39.2 °F 71% 30.06 in 10.0 mi North - - N/A   Clear
4:35 AM 50.0 °F 39.2 °F 66% 30.06 in 10.0 mi North - - N/A   Clear
4:55 AM 50.0 °F 39.2 °F 66% 30.06 in 10.0 mi Calm Calm - N/A   Clear
5:15 AM 48.2 °F 39.2 °F 71% 30.07 in 10.0 mi Calm Calm - N/A   Clear
5:35 AM 48.2 °F 39.2 °F 71% 30.07 in 10.0 mi Calm Calm - N/A   Clear
5:55 AM 46.4 °F 39.2 °F 76% 30.07 in 10.0 mi Calm Calm - N/A   Clear
6:15 AM 48.2 °F 39.2 °F 71% 30.07 in 10.0 mi Calm Calm - N/A   Clear
6:35 AM 48.2 °F 39.2 °F 71% 30.08 in 10.0 mi Calm Calm - N/A   Clear
6:55 AM 46.4 °F 39.2 °F 76% 30.09 in 10.0 mi Calm Calm - N/A   Clear
7:15 AM 46.4 °F 39.2 °F 76% 30.10 in 10.0 mi Calm Calm - N/A   Clear
7:35 AM 46.4 °F 39.2 °F 76% 30.10 in 10.0 mi Calm Calm - N/A   Clear
7:55 AM 48.2 °F 41.0 °F 76% 30.11 in 10.0 mi Calm Calm - N/A   Clear
8:15 AM 51.8 °F 41.0 °F 67% 30.11 in 10.0 mi Calm Calm - N/A   Clear
8:35 AM 57.2 °F 41.0 °F 55% 30.12 in 10.0 mi Calm Calm - N/A   Clear
8:55 AM 60.8 °F 42.8 °F 52% 30.12 in 10.0 mi Calm Calm - N/A   Clear
9:15 AM 66.2 °F 42.8 °F 43% 30.12 in 10.0 mi Calm Calm - N/A   Clear
9:35 AM 69.8 °F 39.2 °F 33% 30.12 in 10.0 mi Calm Calm - N/A   Clear
9:55 AM 71.6 °F 39.2 °F 31% 30.12 in 10.0 mi Calm Calm - N/A   Clear
10:15 AM 73.4 °F 39.2 °F 29% 30.12 in 10.0 mi Calm Calm - N/A   Clear
10:35 AM 75.2 °F 39.2 °F 27% 30.12 in 10.0 mi Calm Calm - N/A   Clear
10:55 AM 78.8 °F 39.2 °F 24% 30.12 in 10.0 mi Variable 4.6 mph - N/A   Clear
11:15 AM 78.8 °F 37.4 °F 23% 30.12 in 10.0 mi Calm Calm - N/A   Clear
11:35 AM 80.6 °F 37.4 °F 21% 30.12 in 10.0 mi Calm Calm - N/A   Clear
11:55 AM 80.6 °F 37.4 °F 21% 30.11 in 10.0 mi Variable 4.6 mph - N/A   Clear
12:15 PM 80.6 °F 37.4 °F 21% 30.12 in 10.0 mi Variable 4.6 mph - N/A   Clear
12:35 PM 82.4 °F 37.4 °F 20% 30.11 in 10.0 mi Variable 4.6 mph - N/A   Clear
12:55 PM 82.4 °F 37.4 °F 20% 30.11 in 10.0 mi SW 5.8 mph - N/A   Clear
1:15 PM 82.4 °F 37.4 °F 20% 30.10 in 10.0 mi Variable 3.5 mph - N/A   Clear
1:35 PM 84.2 °F 37.4 °F 19% 30.10 in 10.0 mi Variable 4.6 mph - N/A   Clear
1:55 PM 82.4 °F 35.6 °F 19% 30.09 in 10.0 mi Variable 3.5 mph - N/A   Clear
2:15 PM 84.2 °F 35.6 °F 18% 30.08 in 10.0 mi Variable 4.6 mph 11.5 mph N/A   Clear
2:35 PM 84.2 °F 35.6 °F 18% 30.08 in 10.0 mi Variable 3.5 mph - N/A   Clear
2:55 PM 84.2 °F 35.6 °F 18% 30.07 in 10.0 mi Variable 6.9 mph - N/A   Clear
3:15 PM 84.2 °F 35.6 °F 18% 30.07 in 10.0 mi Variable 3.5 mph - N/A   Clear
3:35 PM 82.4 °F 35.6 °F 19% 30.07 in 10.0 mi Calm Calm - N/A   Clear
3:55 PM 84.2 °F 35.6 °F 18% 30.06 in 10.0 mi Calm Calm - N/A   Clear
4:15 PM 82.4 °F 35.6 °F 19% 30.06 in 10.0 mi SW 4.6 mph - N/A   Clear
4:35 PM 82.4 °F 35.6 °F 19% 30.07 in 10.0 mi SSW 3.5 mph - N/A   Clear
4:55 PM 82.4 °F 35.6 °F 19% 30.06 in 10.0 mi Variable 3.5 mph - N/A   Clear
5:15 PM 82.4 °F 35.6 °F 19% 30.06 in 10.0 mi Calm Calm - N/A   Clear
5:35 PM 82.4 °F 35.6 °F 19% 30.05 in 10.0 mi Calm Calm - N/A   Clear
5:55 PM 80.6 °F 35.6 °F 20% 30.05 in 10.0 mi Calm Calm - N/A   Clear
6:15 PM 77.0 °F 39.2 °F 26% 30.05 in 10.0 mi North - - N/A   Clear
6:35 PM 71.6 °F 41.0 °F 33% 30.05 in 10.0 mi Calm Calm - N/A   Clear
6:55 PM 69.8 °F 42.8 °F 38% 30.05 in 10.0 mi Calm Calm - N/A   Clear
7:15 PM 66.2 °F 41.0 °F 40% 30.05 in 10.0 mi Calm Calm - N/A   Clear
7:35 PM 64.4 °F 41.0 °F 42% 30.05 in 10.0 mi Calm Calm - N/A   Clear
7:55 PM 62.6 °F 41.0 °F 45% 30.06 in 10.0 mi Calm Calm - N/A   Clear
8:15 PM 60.8 °F 39.2 °F 45% 30.06 in 10.0 mi Calm Calm - N/A   Clear
8:35 PM 60.8 °F 39.2 °F 45% 30.07 in 10.0 mi Calm Calm - N/A   Clear
8:55 PM 59.0 °F 39.2 °F 48% 30.07 in 10.0 mi Calm Calm - N/A   Clear
9:15 PM 57.2 °F 37.4 °F 48% 30.07 in 10.0 mi Calm Calm - N/A   Clear
9:35 PM 57.2 °F 37.4 °F 48% 30.08 in 10.0 mi Calm Calm - N/A   Clear
9:55 PM 55.4 °F 35.6 °F 47% 30.08 in 10.0 mi North - - N/A   Clear
10:15 PM 55.4 °F 35.6 °F 47% 30.08 in 10.0 mi Calm Calm - N/A   Clear
10:35 PM 55.4 °F 35.6 °F 47% 30.07 in 10.0 mi Calm Calm - N/A   Clear
10:55 PM 55.4 °F 35.6 °F 47% 30.07 in 10.0 mi Calm Calm - N/A   Clear
11:15 PM 53.6 °F 35.6 °F 51% 30.08 in 10.0 mi Calm Calm - N/A   Clear
11:35 PM 53.6 °F 35.6 °F 51% 30.08 in 10.0 mi Calm Calm - N/A   Partly Cloudy
11:55 PM 53.6 °F 35.6 °F 51% 30.08 in 10.0 mi Calm Calm - N/A   Mostly Cloudy